Zurück zum Katalog

FENGYUN 1C DEB

AktivSSO
NORAD 30303·DEBRIS·🇨🇳 China

Gestartet May 10, 1999 von Taiyuan Satellite Launch Center

Loading…

Nächste Überflüge (nächste 24 Stunden)

TLE

AktuellSource: Space-Track

Epoche: Sep 14, 2026, 05:02 UTC

1 30303U 99025ZQ  26257.21022641  .00003554  00000-0  13931-2 0  9990
2 30303  99.0116 348.0088 0075144 206.4817 153.2515 14.28529962  8869

Verfolge FENGYUN 1C DEB in Echtzeit mit AllMySat

Download on the App Store